Tracking 28920 objects as of 26-May-2024
HD Live streaming from Space Station
objects crossing your sky now

STARLINK-31615

Track STARLINK-31615 now!
10-day predictions
STARLINK-31615 is classified as:


NORAD ID: 59413
Int'l Code: 2024-064R
Perigee: 449.9 km
Apogee: 452.3 km
Inclination: 43.0 °
Period: 93.5 minutes
Semi major axis: 6822 km
RCS: Unknown
Launch date: April 5, 2024
Source: United States (US)
Launch site: AIR FORCE EASTERN TEST RANGE (AFETR)
Your satellite tracking list
Your tracking list is empty




NASA's NSSDC Master Catalog

Two Line Element Set (TLE):
1 59413U 24064R   24147.50917145 -.00001670  00000-0 -32699-4 0  9997
2 59413  42.9992 168.7250 0001767 243.0188 117.0488 15.40714182  9141
Source of the keplerian elements: AFSPC